Time,TemperatureF,DewpointF,PressureIn,WindDirection,WindDirectionDegrees,WindSpeedMPH,WindSpeedGustMPH,Humidity,HourlyPrecipIn,Conditions,Clouds,dailyrainin,SoftwareType,DateUTC
2013-07-02 00:01:00,65.0,53.0,30.03,South,178,1.0,3.0,66,0.00,,,0.00,,2013-07-02 05:01:00,
2013-07-02 00:11:00,64.0,53.0,30.03,South,178,0.0,2.0,68,0.00,,,0.00,,2013-07-02 05:11:00,
2013-07-02 00:22:00,63.0,52.0,30.03,South,178,0.0,3.0,67,0.00,,,0.00,,2013-07-02 05:22:00,
2013-07-02 00:32:00,63.0,52.0,30.03,South,178,0.0,3.0,67,0.00,,,0.00,,2013-07-02 05:32:00,
2013-07-02 00:43:00,64.0,52.0,30.03,South,171,0.0,4.0,65,0.00,,,0.00,,2013-07-02 05:43:00,
2013-07-02 00:53:00,63.0,51.0,30.02,SSE,163,1.0,5.0,64,0.00,,,0.00,,2013-07-02 05:53:00,
2013-07-02 01:01:00,63.0,51.0,30.02,SSE,163,1.0,5.0,64,0.00,,,0.00,,2013-07-02 06:01:00,
2013-07-02 01:12:00,63.0,51.0,30.02,WNW,294,1.0,3.0,66,0.00,,,0.00,,2013-07-02 06:12:00,
2013-07-02 01:23:00,62.0,51.0,30.02,NNW,344,0.0,3.0,68,0.00,,,0.00,,2013-07-02 06:23:00,
2013-07-02 01:34:00,62.0,51.0,30.02,NNW,344,0.0,3.0,68,0.00,,,0.00,,2013-07-02 06:34:00,
2013-07-02 01:43:00,61.0,52.0,30.02,NNW,344,2.0,4.0,71,0.00,,,0.00,,2013-07-02 06:43:00,
2013-07-02 01:53:00,60.0,52.0,30.02,NNW,344,0.0,4.0,74,0.00,,,0.00,,2013-07-02 06:53:00,
2013-07-02 02:01:00,60.0,52.0,30.02,NNW,344,0.0,4.0,74,0.00,,,0.00,,2013-07-02 07:01:00,
2013-07-02 02:12:00,59.0,51.0,30.02,NNW,344,1.0,4.0,75,0.00,,,0.00,,2013-07-02 07:12:00,
2013-07-02 02:22:00,59.0,51.0,30.01,NNW,344,0.0,3.0,75,0.00,,,0.00,,2013-07-02 07:22:00,
2013-07-02 02:34:00,59.0,51.0,30.01,NNW,344,0.0,3.0,75,0.00,,,0.00,,2013-07-02 07:34:00,
2013-07-02 02:44:00,59.0,52.0,30.01,NNW,333,0.0,4.0,77,0.00,,,0.00,,2013-07-02 07:44:00,
2013-07-02 02:53:00,58.0,52.0,30.01,NNW,333,0.0,2.0,79,0.00,,,0.00,,2013-07-02 07:53:00,
2013-07-02 03:02:00,58.0,52.0,30.01,NNW,333,0.0,2.0,79,0.00,,,0.00,,2013-07-02 08:02:00,
2013-07-02 03:12:00,57.0,51.0,30.01,NNW,333,0.0,3.0,81,0.00,,,0.00,,2013-07-02 08:12:00,
2013-07-02 03:22:00,57.0,52.0,30.01,NNW,333,0.0,3.0,83,0.00,,,0.00,,2013-07-02 08:22:00,
2013-07-02 03:33:00,57.0,52.0,30.01,NNW,333,0.0,3.0,83,0.00,,,0.00,,2013-07-02 08:33:00,
2013-07-02 03:44:00,57.0,52.0,30.01,NNW,342,2.0,5.0,82,0.00,,,0.00,,2013-07-02 08:44:00,
2013-07-02 03:53:00,57.0,52.0,30.01,NNW,342,0.0,4.0,82,0.00,,,0.00,,2013-07-02 08:53:00,
2013-07-02 04:02:00,57.0,52.0,30.01,NNW,342,0.0,4.0,82,0.00,,,0.00,,2013-07-02 09:02:00,
2013-07-02 04:11:00,57.0,51.0,30.01,NNW,346,1.0,4.0,81,0.00,,,0.00,,2013-07-02 09:11:00,
2013-07-02 04:23:00,57.0,51.0,30.01,NNW,344,0.0,4.0,81,0.00,,,0.00,,2013-07-02 09:23:00,
2013-07-02 04:33:00,57.0,51.0,30.01,NNW,344,0.0,4.0,81,0.00,,,0.00,,2013-07-02 09:33:00,
2013-07-02 04:43:00,57.0,51.0,30.01,NNW,344,0.0,4.0,81,0.00,,,0.00,,2013-07-02 09:43:00,
2013-07-02 04:52:00,57.0,52.0,30.01,North,355,0.0,5.0,82,0.00,,,0.00,,2013-07-02 09:52:00,
2013-07-02 05:01:00,57.0,52.0,30.01,North,355,0.0,5.0,82,0.00,,,0.00,,2013-07-02 10:01:00,
2013-07-02 05:11:00,57.0,52.0,30.01,SSE,159,0.0,4.0,82,0.00,,,0.00,,2013-07-02 10:11:00,
2013-07-02 05:22:00,57.0,52.0,30.01,North,350,0.0,3.0,82,0.00,,,0.00,,2013-07-02 10:22:00,
2013-07-02 05:33:00,57.0,52.0,30.01,North,350,0.0,3.0,82,0.00,,,0.00,,2013-07-02 10:33:00,
2013-07-02 05:44:00,57.0,52.0,30.02,NNW,340,0.0,3.0,82,0.00,,,0.00,,2013-07-02 10:44:00,
2013-07-02 05:52:00,57.0,52.0,30.02,NNW,340,0.0,3.0,83,0.00,,,0.00,,2013-07-02 10:52:00,
2013-07-02 06:01:00,57.0,52.0,30.02,NNW,340,0.0,3.0,83,0.00,,,0.00,,2013-07-02 11:01:00,
2013-07-02 06:11:00,56.0,51.0,30.02,NNW,340,0.0,4.0,83,0.00,,,0.00,,2013-07-02 11:11:00,
2013-07-02 06:22:00,56.0,51.0,30.02,NNW,340,1.0,4.0,84,0.00,,,0.00,,2013-07-02 11:22:00,
2013-07-02 06:33:00,56.0,51.0,30.02,NNW,340,1.0,4.0,84,0.00,,,0.00,,2013-07-02 11:33:00,
2013-07-02 06:42:00,56.0,51.0,30.03,NNW,342,0.0,5.0,84,0.00,,,0.00,,2013-07-02 11:42:00,
2013-07-02 06:52:00,56.0,51.0,30.03,NNW,340,1.0,5.0,84,0.00,,,0.00,,2013-07-02 11:52:00,
2013-07-02 07:01:00,56.0,51.0,30.03,NNW,340,1.0,5.0,84,0.00,,,0.00,,2013-07-02 12:01:00,
2013-07-02 07:11:00,57.0,52.0,30.03,NE,49,0.0,2.0,84,0.00,,,0.00,,2013-07-02 12:11:00,
2013-07-02 07:23:00,58.0,52.0,30.03,SSE,149,0.0,6.0,81,0.00,,,0.00,,2013-07-02 12:23:00,
2013-07-02 07:33:00,58.0,52.0,30.03,SSE,149,0.0,6.0,81,0.00,,,0.00,,2013-07-02 12:33:00,
2013-07-02 07:43:00,59.0,53.0,30.04,ENE,77,1.0,7.0,80,0.00,,,0.00,,2013-07-02 12:43:00,
2013-07-02 07:52:00,61.0,54.0,30.04,NW,309,2.0,6.0,78,0.00,,,0.00,,2013-07-02 12:52:00,
2013-07-02 08:01:00,61.0,54.0,30.04,NW,309,2.0,6.0,78,0.00,,,0.00,,2013-07-02 13:01:00,
2013-07-02 08:11:00,62.0,54.0,30.04,South,169,2.0,5.0,74,0.00,,,0.00,,2013-07-02 13:11:00,
2013-07-02 08:22:00,63.0,52.0,30.04,SE,146,2.0,9.0,68,0.00,,,0.00,,2013-07-02 13:22:00,
2013-07-02 08:34:00,63.0,52.0,30.04,SE,146,2.0,9.0,68,0.00,,,0.00,,2013-07-02 13:34:00,
2013-07-02 08:43:00,64.0,53.0,30.04,SE,138,1.0,6.0,67,0.00,,,0.00,,2013-07-02 13:43:00,
2013-07-02 08:52:00,65.0,53.0,30.04,ENE,58,2.0,10.0,65,0.00,,,0.00,,2013-07-02 13:52:00,
2013-07-02 09:02:00,65.0,53.0,30.04,ENE,58,2.0,10.0,65,0.00,,,0.00,,2013-07-02 14:02:00,
2013-07-02 09:11:00,66.0,53.0,30.05,SE,138,0.0,9.0,64,0.00,,,0.00,,2013-07-02 14:11:00,
2013-07-02 09:22:00,68.0,53.0,30.05,SE,144,3.0,9.0,58,0.00,,,0.00,,2013-07-02 14:22:00,
2013-07-02 09:33:00,68.0,53.0,30.05,SE,144,3.0,9.0,58,0.00,,,0.00,,2013-07-02 14:33:00,
2013-07-02 09:43:00,69.0,52.0,30.04,SE,128,3.0,10.0,55,0.00,,,0.00,,2013-07-02 14:43:00,
2013-07-02 09:53:00,70.0,53.0,30.04,SE,132,5.0,10.0,54,0.00,,,0.00,,2013-07-02 14:53:00,
2013-07-02 10:02:00,70.0,53.0,30.04,SE,132,5.0,10.0,54,0.00,,,0.00,,2013-07-02 15:02:00,
2013-07-02 10:11:00,71.0,51.0,30.04,NNE,15,1.0,6.0,50,0.00,,,0.00,,2013-07-02 15:11:00,
2013-07-02 10:22:00,72.0,52.0,30.04,SSE,149,2.0,9.0,50,0.00,,,0.00,,2013-07-02 15:22:00,
2013-07-02 10:33:00,72.0,52.0,30.04,SSE,149,2.0,9.0,50,0.00,,,0.00,,2013-07-02 15:33:00,
2013-07-02 10:44:00,72.0,51.0,30.03,South,184,4.0,10.0,47,0.00,,,0.00,,2013-07-02 15:44:00,
2013-07-02 10:53:00,73.0,51.0,30.03,NNW,336,4.0,11.0,46,0.00,,,0.00,,2013-07-02 15:53:00,
2013-07-02 11:01:00,73.0,51.0,30.03,NNW,336,4.0,11.0,46,0.00,,,0.00,,2013-07-02 16:01:00,
2013-07-02 11:12:00,73.0,51.0,30.03,SW,222,3.0,11.0,46,0.00,,,0.00,,2013-07-02 16:12:00,
2013-07-02 11:22:00,74.0,51.0,30.03,NNW,340,1.0,9.0,45,0.00,,,0.00,,2013-07-02 16:22:00,
2013-07-02 11:33:00,74.0,51.0,30.03,NNW,340,1.0,9.0,45,0.00,,,0.00,,2013-07-02 16:33:00,
2013-07-02 11:43:00,74.0,51.0,30.03,NNW,330,3.0,9.0,45,0.00,,,0.00,,2013-07-02 16:43:00,
2013-07-02 11:52:00,75.0,52.0,30.03,NE,38,3.0,12.0,44,0.00,,,0.00,,2013-07-02 16:52:00,
2013-07-02 12:02:00,75.0,52.0,30.03,NE,38,3.0,12.0,44,0.00,,,0.00,,2013-07-02 17:02:00,
2013-07-02 12:12:00,75.0,52.0,30.03,NE,47,3.0,10.0,44,0.00,,,0.00,,2013-07-02 17:12:00,
2013-07-02 12:33:00,74.0,51.0,30.03,East,82,4.0,14.0,44,0.00,,,0.00,,2013-07-02 17:33:00,
2013-07-02 12:43:00,75.0,51.0,30.03,SSE,154,4.0,9.0,43,0.00,,,0.00,,2013-07-02 17:43:00,
2013-07-02 12:53:00,75.0,50.0,30.03,SSW,212,2.0,13.0,42,0.00,,,0.00,,2013-07-02 17:53:00,
2013-07-02 13:02:00,75.0,50.0,30.03,SSW,212,2.0,13.0,42,0.00,,,0.00,,2013-07-02 18:02:00,
2013-07-02 13:12:00,75.0,50.0,30.02,SE,135,3.0,12.0,42,0.00,,,0.00,,2013-07-02 18:12:00,
2013-07-02 13:23:00,75.0,52.0,30.02,North,349,2.0,8.0,44,0.00,,,0.00,,2013-07-02 18:23:00,
2013-07-02 13:34:00,75.0,52.0,30.02,North,349,2.0,8.0,44,0.00,,,0.00,,2013-07-02 18:34:00,
2013-07-02 13:43:00,75.0,52.0,30.02,SE,139,5.0,11.0,44,0.00,,,0.00,,2013-07-02 18:43:00,
2013-07-02 13:53:00,77.0,53.0,30.01,NNW,344,3.0,10.0,44,0.00,,,0.00,,2013-07-02 18:53:00,
2013-07-02 14:01:00,77.0,53.0,30.01,NNW,344,3.0,10.0,44,0.00,,,0.00,,2013-07-02 19:01:00,
2013-07-02 14:12:00,77.0,53.0,30.01,SE,146,3.0,11.0,43,0.00,,,0.00,,2013-07-02 19:12:00,
2013-07-02 14:22:00,76.0,54.0,30.01,NE,40,3.0,8.0,46,0.00,,,0.00,,2013-07-02 19:22:00,
2013-07-02 14:34:00,76.0,54.0,30.01,NE,40,3.0,8.0,46,0.00,,,0.00,,2013-07-02 19:34:00,
2013-07-02 14:43:00,75.0,53.0,30.01,ESE,103,2.0,10.0,46,0.00,,,0.00,,2013-07-02 19:43:00,
2013-07-02 14:53:00,76.0,55.0,30.01,NNW,335,3.0,8.0,48,0.00,,,0.00,,2013-07-02 19:53:00,
2013-07-02 15:02:00,76.0,55.0,30.01,NNW,335,3.0,8.0,48,0.00,,,0.00,,2013-07-02 20:02:00,
2013-07-02 15:11:00,77.0,52.0,30.00,NNE,31,4.0,10.0,42,0.00,,,0.00,,2013-07-02 20:11:00,
2013-07-02 15:22:00,77.0,51.0,30.00,SSE,167,5.0,11.0,41,0.00,,,0.00,,2013-07-02 20:22:00,
2013-07-02 15:33:00,77.0,51.0,30.00,SSE,167,5.0,11.0,41,0.00,,,0.00,,2013-07-02 20:33:00,
2013-07-02 15:43:00,76.0,50.0,30.00,South,183,4.0,12.0,40,0.00,,,0.00,,2013-07-02 20:43:00,
2013-07-02 15:52:00,76.0,50.0,30.00,South,169,1.0,9.0,40,0.00,,,0.00,,2013-07-02 20:52:00,
2013-07-02 16:02:00,76.0,50.0,30.00,South,169,1.0,9.0,40,0.00,,,0.00,,2013-07-02 21:02:00,
2013-07-02 16:11:00,75.0,48.0,30.00,SE,134,6.0,11.0,39,0.00,,,0.00,,2013-07-02 21:11:00,
2013-07-02 16:22:00,75.0,48.0,30.00,SE,128,4.0,9.0,38,0.00,,,0.00,,2013-07-02 21:22:00,
2013-07-02 16:33:00,75.0,48.0,30.00,SE,128,4.0,9.0,38,0.00,,,0.00,,2013-07-02 21:33:00,
2013-07-02 16:44:00,75.0,46.0,30.00,SSE,148,1.0,9.0,36,0.00,,,0.00,,2013-07-02 21:44:00,
2013-07-02 16:52:00,75.0,47.0,30.00,SE,138,3.0,7.0,37,0.00,,,0.00,,2013-07-02 21:52:00,
2013-07-02 17:01:00,75.0,47.0,30.00,SE,138,3.0,7.0,37,0.00,,,0.00,,2013-07-02 22:01:00,
2013-07-02 17:11:00,74.0,46.0,30.00,SSE,153,2.0,8.0,37,0.00,,,0.00,,2013-07-02 22:11:00,
2013-07-02 17:22:00,74.0,45.0,30.00,SE,142,2.0,15.0,35,0.00,,,0.00,,2013-07-02 22:22:00,
2013-07-02 17:34:00,74.0,45.0,30.00,SE,142,2.0,15.0,35,0.00,,,0.00,,2013-07-02 22:34:00,
2013-07-02 17:53:00,76.0,42.0,29.99,SE,144,4.0,9.0,30,0.00,,,0.00,,2013-07-02 22:53:00,
2013-07-02 18:22:00,75.0,43.0,29.99,NE,40,1.0,8.0,32,0.00,,,0.00,,2013-07-02 23:22:00,
2013-07-02 18:33:00,75.0,43.0,29.99,NE,40,1.0,8.0,32,0.00,,,0.00,,2013-07-02 23:33:00,
2013-07-02 18:44:00,75.0,45.0,29.98,NNW,337,1.0,7.0,35,0.00,,,0.00,,2013-07-02 23:44:00,
2013-07-02 18:52:00,75.0,48.0,29.99,NE,55,0.0,5.0,39,0.00,,,0.00,,2013-07-02 23:52:00,
2013-07-02 19:01:00,75.0,48.0,29.99,NE,55,0.0,5.0,39,0.00,,,0.00,,2013-07-03 00:01:00,
2013-07-02 19:11:00,74.0,51.0,29.98,East,81,1.0,9.0,44,0.00,,,0.00,,2013-07-03 00:11:00,
2013-07-02 19:22:00,73.0,49.0,29.98,SE,126,1.0,5.0,43,0.00,,,0.00,,2013-07-03 00:22:00,
2013-07-02 19:33:00,73.0,49.0,29.98,SE,126,1.0,5.0,43,0.00,,,0.00,,2013-07-03 00:33:00,
2013-07-02 19:44:00,72.0,56.0,29.99,ESE,116,3.0,8.0,57,0.00,,,0.00,,2013-07-03 00:44:00,
2013-07-02 19:52:00,72.0,56.0,29.99,ESE,116,3.0,8.0,57,0.00,,,0.00,,2013-07-03 00:52:00,
2013-07-02 20:01:00,70.0,56.0,29.99,SE,136,2.0,5.0,62,0.00,,,0.00,,2013-07-03 01:01:00,
2013-07-02 20:11:00,70.0,57.0,29.99,SE,144,1.0,6.0,64,0.00,,,0.00,,2013-07-03 01:11:00,
2013-07-02 20:22:00,70.0,57.0,29.99,SE,144,1.0,6.0,64,0.00,,,0.00,,2013-07-03 01:22:00,
2013-07-02 20:33:00,69.0,57.0,29.99,SE,138,2.0,6.0,65,0.00,,,0.00,,2013-07-03 01:33:00,
2013-07-02 20:42:00,69.0,57.0,29.99,SE,138,2.0,6.0,65,0.00,,,0.00,,2013-07-03 01:42:00,
2013-07-02 21:05:00,68.0,56.0,30.00,SE,138,2.0,4.0,66,0.00,,,0.00,,2013-07-03 02:05:00,
2013-07-02 21:14:00,67.0,56.0,30.00,SE,138,0.0,3.0,67,0.00,,,0.00,,2013-07-03 02:14:00,
2013-07-02 21:27:00,65.0,55.0,30.01,SE,138,1.0,4.0,69,0.00,,,0.00,,2013-07-03 02:27:00,
2013-07-02 21:39:00,65.0,55.0,30.01,SE,138,1.0,4.0,69,0.00,,,0.00,,2013-07-03 02:39:00,
2013-07-02 21:44:00,64.0,54.0,30.01,SE,141,0.0,4.0,69,0.00,,,0.00,,2013-07-03 02:44:00,
2013-07-02 21:55:00,64.0,54.0,30.01,SE,141,0.0,4.0,69,0.00,,,0.00,,2013-07-03 02:55:00,
2013-07-02 22:04:00,64.0,54.0,30.02,SE,141,1.0,3.0,69,0.00,,,0.00,,2013-07-03 03:04:00,
2013-07-02 22:13:00,63.0,53.0,30.02,SE,143,2.0,4.0,70,0.00,,,0.00,,2013-07-03 03:13:00,
2013-07-02 22:25:00,63.0,53.0,30.02,SE,143,0.0,3.0,71,0.00,,,0.00,,2013-07-03 03:25:00,
2013-07-02 22:47:00,62.0,53.0,30.02,SE,143,0.0,4.0,72,0.00,,,0.00,,2013-07-03 03:47:00,
2013-07-02 22:55:00,61.0,53.0,30.02,SE,143,0.0,0.0,74,0.00,,,0.00,,2013-07-03 03:55:00,
2013-07-02 23:01:00,61.0,53.0,30.02,SE,143,0.0,0.0,74,0.00,,,0.00,,2013-07-03 04:01:00,
2013-07-02 23:11:00,61.0,53.0,30.03,SE,143,0.0,0.0,76,0.00,,,0.00,,2013-07-03 04:11:00,
2013-07-02 23:33:00,61.0,53.0,30.03,SE,143,0.0,1.0,76,0.00,,,0.00,,2013-07-03 04:33:00,
2013-07-02 23:43:00,60.0,53.0,30.03,SE,143,0.0,1.0,77,0.00,,,0.00,,2013-07-03 04:43:00,